Location: Banios
(43.0451°N, 0.2335°E)
Time: 08:12:14
(UTC+00:00)

A-11 Canister half - Pass Details

Date: 13 May 2021
Orbit: 1527 x 1681 km, 47.3° (Epoch: 22 June)

Event Time Altitude Azimuth Distance (km) Brightness Sun altitude
Rises 07:01:46 0° 194° (SSW) 4,684 11.4 24.5°
Reaches altitude 10° 07:05:23 10° 183° (S) 3,720 11.0 25.1°
Maximum altitude 07:12:50 27° 130° (SE) 2,656 11.3 26.5°
Drops below altitude 10° 07:20:28 10° 77° (ENE) 3,824 12.7 27.9°
Sets 07:24:12 0° 66° (ENE) 4,837 12.6 28.6°
